Date String (YYYY-MM-DD hh:mm:ss) UTC,Instrument flags,absolute air pressure of the measurement (hPa),sample flow rate (lpm),inlet stack bypass flow (lpm),air temperature of the measurement (°C),ambient temperature measured by the external sensor (°C),aerosol sample conditioner tube jacket temperature (°C),OPC LED temperature (°C),internal box temperature (°C),relative humidity of the measurement (%),span deviation,mass concentration of particles derived from Lorenz-Mie calculation of OPC scattering (μg/m³),mass concentration of particles derived from Lorenz-Mie calculation of OPC scattering (μg/m³),mass concentration of particles derived from Lorenz-Mie calculation of OPC scattering (μg/m³)
DateTimeUTC,F1_M11,P_M11,Q1_M11,Q2_M11,T1_M11,T2_M11,T3_M11,T4_M11,T5_M11,U1_M11,ZSPAN_M11,X2_M11,X0_M11,X1_M11
2023-10-15 22:00:00,SystemResetWarning,0838.7,5.01,000.00,028.5,026.1,000.0,037.0,030.1,13.5,0000.0,0003.33,0004.73,0003.11
2023-10-15 22:01:00,SystemResetWarning,0838.7,5.00,000.00,028.5,026.4,000.0,037.0,030.2,13.5,0000.0,0003.31,0004.81,0003.10
2023-10-15 22:02:00,SystemResetWarning,0838.7,4.99,000.00,028.6,026.7,000.0,037.0,030.2,13.5,0000.0,0003.33,0004.99,0003.09
2023-10-15 22:03:00,SystemResetWarning,0838.7,5.00,000.00,028.6,027.0,000.0,037.0,030.3,13.6,0000.0,0003.34,0005.12,0003.06
2023-10-15 22:04:00,SystemResetWarning,0838.8,5.01,000.00,028.6,027.2,000.0,037.0,030.4,13.7,0000.0,0003.33,0005.15,0003.02
2023-10-15 22:05:00,SystemResetWarning,0838.8,4.99,000.00,028.6,027.3,000.0,037.0,030.4,13.5,0000.0,0003.34,0005.20,0003.00
2023-10-15 22:06:00,SystemResetWarning,0838.7,4.99,000.00,028.7,027.5,000.0,037.0,030.5,13.8,0000.0,0003.34,0005.37,0002.97
2023-10-15 22:07:00,SystemResetWarning,0838.8,5.01,000.00,028.7,027.6,000.0,037.1,030.5,13.7,0000.0,0003.31,0005.20,0002.94
2023-10-15 22:08:00,SystemResetWarning,0838.8,5.01,000.00,028.8,027.8,000.0,037.1,030.6,13.6,0000.0,0003.31,0006.17,0002.93
2023-10-15 22:09:00,SystemResetWarning,0838.7,4.99,000.00,028.8,027.2,000.0,037.1,030.6,13.4,0000.0,0003.30,0006.63,0002.92
2023-10-15 22:10:00,SystemResetWarning,0838.7,5.00,000.00,028.8,025.1,000.0,037.0,030.4,13.4,0000.0,0003.32,0006.73,0002.92
2023-10-15 22:11:00,SystemResetWarning,0838.8,5.01,000.00,028.6,024.0,000.0,036.9,030.1,13.4,0000.0,0003.32,0006.76,0002.92
2023-10-15 22:12:00,SystemResetWarning,0838.8,5.00,000.00,028.5,024.2,000.0,036.9,030.0,13.5,0000.0,0003.33,0006.88,0002.93
2023-10-15 22:13:00,SystemResetWarning,0838.8,4.99,000.00,028.4,024.6,000.0,036.9,029.8,13.6,0000.0,0003.29,0007.47,0002.93
2023-10-15 22:14:00,SystemResetWarning,0838.8,5.00,000.00,028.4,025.1,000.0,036.9,029.9,13.6,0000.0,0003.29,0007.81,0002.93
2023-10-15 22:15:00,SystemResetWarning,0838.8,5.01,000.00,028.4,025.5,000.0,036.9,029.9,13.7,0000.0,0003.33,0007.93,0002.93
2023-10-15 22:16:00,SystemResetWarning,0838.8,4.99,000.00,028.4,025.9,000.0,036.9,030.0,13.7,0000.0,0003.35,0008.34,0002.94
2023-10-15 22:17:00,SystemResetWarning,0838.8,4.99,000.00,028.4,026.3,000.0,036.9,030.0,13.7,0000.0,0003.36,0008.54,0002.94
2023-10-15 22:18:00,SystemResetWarning,0838.8,5.02,000.00,028.4,026.6,000.0,036.9,030.1,13.8,0000.0,0003.38,0008.58,0002.95
2023-10-15 22:19:00,SystemResetWarning,0838.7,4.99,000.00,028.4,026.8,000.0,036.9,030.2,13.8,0000.0,0003.37,0008.49,0002.95
2023-10-15 22:20:00,SystemResetWarning,0838.8,5.00,000.00,028.5,027.0,000.0,036.9,030.2,13.9,0000.0,0003.37,0009.46,0002.95
2023-10-15 22:21:00,SystemResetWarning,0838.8,5.01,000.00,028.5,027.2,000.0,036.9,030.3,13.8,0000.0,0003.35,0009.42,0002.95
2023-10-15 22:22:00,SystemResetWarning,0838.8,5.01,000.00,028.6,027.4,000.0,036.9,030.3,13.6,0000.0,0003.36,0009.41,0002.94
2023-10-15 22:23:00,SystemResetWarning,0838.8,5.00,000.00,028.6,027.5,000.0,036.9,030.4,13.6,0000.0,0003.34,0009.20,0002.93
2023-10-15 22:24:00,SystemResetWarning,0838.8,4.99,000.00,028.6,027.6,000.0,037.0,030.4,13.6,0000.0,0003.35,0009.40,0002.93
2023-10-15 22:25:00,SystemResetWarning,0838.8,4.99,000.00,028.7,027.7,000.0,037.0,030.5,13.5,0000.0,0003.35,0009.35,0002.92
2023-10-15 22:26:00,SystemResetWarning,0838.8,5.01,000.00,028.7,027.8,000.0,037.0,030.6,13.5,0000.0,0003.31,0009.39,0002.91
2023-10-15 22:27:00,SystemResetWarning,0838.8,5.01,000.00,028.8,027.5,000.0,037.0,030.6,13.4,0000.0,0003.29,0009.21,0002.89
2023-10-15 22:28:00,SystemResetWarning,0838.8,4.98,000.00,028.7,025.7,000.0,037.0,030.4,13.5,0000.0,0003.27,0008.81,0002.88
2023-10-15 22:29:00,SystemResetWarning,0838.8,5.01,000.00,028.7,025.1,000.0,036.9,030.3,13.5,0000.0,0003.26,0008.77,0002.87
2023-10-15 22:30:00,SystemResetWarning,0838.7,5.02,000.00,028.6,025.2,000.0,036.9,030.1,13.7,0000.0,0003.25,0008.90,0002.85
2023-10-15 22:31:00,SystemResetWarning,0838.7,5.00,000.00,028.5,025.5,000.0,036.9,030.0,13.7,0000.0,0003.26,0007.54,0002.85
2023-10-15 22:32:00,SystemResetWarning,0838.7,4.99,000.00,028.5,025.9,000.0,036.9,030.1,13.7,0000.0,0003.27,0007.45,0002.85
2023-10-15 22:33:00,SystemResetWarning,0838.8,5.00,000.00,028.5,026.2,000.0,037.0,030.1,13.6,0000.0,0003.27,0007.86,0002.85
2023-10-15 22:34:00,SystemResetWarning,0838.7,5.00,000.00,028.5,026.5,000.0,037.0,030.2,13.8,0000.0,0003.27,0007.89,0002.84
2023-10-15 22:35:00,SystemResetWarning,0838.8,5.01,000.00,028.6,026.8,000.0,037.0,030.2,13.7,0000.0,0003.27,0007.33,0002.84
2023-10-15 22:36:00,SystemResetWarning,0838.8,5.00,000.00,028.6,027.0,000.0,037.0,030.3,13.6,0000.0,0003.25,0007.65,0002.84
2023-10-15 22:37:00,SystemResetWarning,0838.8,4.99,000.00,028.6,027.2,000.0,037.0,030.4,13.5,0000.0,0003.30,0007.77,0002.86
2023-10-15 22:38:00,SystemResetWarning,0838.8,5.00,000.00,028.6,027.4,000.0,037.0,030.4,13.5,0000.0,0003.29,0007.67,0002.87
2023-10-15 22:39:00,SystemResetWarning,0838.8,5.00,000.00,028.7,027.5,000.0,037.0,030.5,13.5,0000.0,0003.27,0007.58,0002.87
2023-10-15 22:40:00,SystemResetWarning,0838.8,5.00,000.00,028.7,027.7,000.0,037.0,030.5,13.5,0000.0,0003.26,0007.52,0002.86
2023-10-15 22:41:00,SystemResetWarning,0838.8,5.00,000.00,028.8,027.8,000.0,037.0,030.6,13.4,0000.0,0003.27,0008.00,0002.86
2023-10-15 22:42:00,SystemResetWarning,0838.8,5.01,000.00,028.8,027.8,000.0,037.1,030.6,13.4,0000.0,0003.27,0008.05,0002.85
2023-10-15 22:43:00,SystemResetWarning,0838.8,4.98,000.00,028.8,026.5,000.0,037.1,030.6,13.3,0000.0,0003.26,0008.20,0002.84
2023-10-15 22:44:00,SystemResetWarning,0838.8,5.01,000.00,028.7,024.5,000.0,037.0,030.3,13.4,0000.0,0003.24,0007.70,0002.83
2023-10-15 22:45:00,SystemResetWarning,0838.8,5.01,000.00,028.6,024.1,000.0,036.9,030.1,13.4,0000.0,0003.22,0008.10,0002.82
2023-10-15 22:46:00,SystemResetWarning,0838.8,5.00,000.00,028.5,024.3,000.0,036.9,029.9,13.5,0000.0,0003.23,0008.89,0002.82
2023-10-15 22:47:00,SystemResetWarning,0838.8,5.00,000.00,028.4,024.8,000.0,036.9,029.8,13.7,0000.0,0003.25,0008.48,0002.82
2023-10-15 22:48:00,SystemResetWarning,0838.8,5.01,000.00,028.4,025.3,000.0,036.9,029.9,13.8,0000.0,0003.23,0007.99,0002.82
2023-10-15 22:49:00,SystemResetWarning,0838.8,4.99,000.00,028.4,025.7,000.0,036.9,030.0,13.8,0000.0,0003.20,0007.90,0002.83
2023-10-15 22:50:00,SystemResetWarning,0838.8,4.99,000.00,028.4,026.1,000.0,036.9,030.0,13.7,0000.0,0003.22,0007.96,0002.82
2023-10-15 22:51:00,SystemResetWarning,0838.8,5.00,000.00,028.4,026.4,000.0,036.9,030.1,13.6,0000.0,0003.24,0008.02,0002.82
2023-10-15 22:52:00,SystemResetWarning,0838.8,5.01,000.00,028.4,026.7,000.0,036.9,030.2,13.7,0000.0,0003.26,0007.77,0002.82
2023-10-15 22:53:00,SystemResetWarning,0838.8,5.01,000.00,028.5,026.9,000.0,036.9,030.2,13.6,0000.0,0003.25,0007.43,0002.83
2023-10-15 22:54:00,SystemResetWarning,0838.8,5.01,000.00,028.5,027.1,000.0,036.9,030.3,13.7,0000.0,0003.26,0007.31,0002.83
2023-10-15 22:55:00,SystemResetWarning,0838.8,5.00,000.00,028.5,027.3,000.0,036.9,030.3,13.7,0000.0,0003.28,0007.41,0002.83
2023-10-15 22:56:00,SystemResetWarning,0838.8,5.00,000.00,028.6,027.4,000.0,036.9,030.4,13.7,0000.0,0003.28,0007.73,0002.84
2023-10-15 22:57:00,SystemResetWarning,0838.8,5.00,000.00,028.6,027.6,000.0,036.9,030.4,13.6,0000.0,0003.29,0006.53,0002.84
2023-10-15 22:58:00,SystemResetWarning,0838.8,4.99,000.00,028.7,027.7,000.0,036.9,030.5,13.7,0000.0,0003.28,0005.98,0002.86
2023-10-15 22:59:00,SystemResetWarning,0838.8,5.01,000.00,028.7,027.7,000.0,037.0,030.5,13.5,0000.0,0003.29,0005.98,0002.87
